Погода в Днепрянах

Украина / Херсонская область     46°44′50″N   33°16′38″E
темп.,
°C
ветер,
м/с
пор.,
м/с
влажн.,
%
обл.,
%
осадки,
мм/ч
давл.,
гПа
погр.,
м
18 мая, вт
вт1800:00+13ююз489472 0.0 1007214
03:00+13ю3896100 0.0 1006236
06:00+13ю499341 0.0 1006286
09:00+19ю696888 0.1 1005799
12:00+17ююз71175100 2.4 1006881
15:00+19ююз8117098 2.6 10041119
18:00+17ююз7107463 0.0 1004960
21:00+14ююз6118469 0.0 1004462
19 мая, ср
ср1900:00+12ю48941 0.0 1004180
03:00+11ююз38925 0.1 1004187
06:00+11ю410915 0.0 1004334
09:00+15юз797167 0.2 10041127
12:00+13ююз71292100 0.8 1005827
15:00+20з9125779 1.4 10051799
18:00+17з9126926 0.4 10071392
21:00+13зюз411780 0.4 1009347
20 мая, чт
чт2000:00+12зюз512810 0.0 1010349
03:00+11зюз398749 0.0 1010183
06:00+11зюз228295 0.0 101130
09:00+17юз2467100 0.0 1012579
12:00+18ююз2460100 0.0 1011623
15:00+22ю454169 0.0 10101386
18:00+23вюв344169 0.0 10091617
21:00+16в486796 0.0 1010167
21 мая, пт
пт2100:00+14в41071100 0.0 1010230
03:00+13всв3679100 0.0 1009134
06:00+13в3690100 0.0 1009153
09:00+18вюв3372100 0.0 1010586
12:00+22ююв3355100 0.0 10101053
15:00+25ю2244100 0.0 10091488
18:00+25ю214473 0.0 10091283
21:00+19сз3368100 0.0 100951
22 мая, сб
сб2200:00+17с3781100 0.0 1009121
03:00+16ссз3688100 0.0 1010197
06:00+15с6128993 0.0 1009306
09:00+21ссв710695 0.0 1009532
12:00+25св77545 0.0 10091025
15:00+27св67499 0.0 10091431
18:00+27ссв67523 0.0 10091472
21:00+22с5127138 0.0 1010298